Location: Alafon
(8.4500°N, 4.2333°E)
Time: 16:43:48
(UTC+00:00)

Transit 2A - Pass Details

Date: 03 August 2021
Orbit: 595 x 964 km, 66.7° (Epoch: 18 September)

Event Time Altitude Azimuth Distance (km) Brightness Sun altitude
Rises 14:39:18 0° 359° (N) 3,468 9.6 47.7°
Reaches altitude 10° 14:42:04 10° 10° (N) 2,579 8.9 47.1°
Maximum altitude 14:47:14 29° 69° (ENE) 1,649 7.7 45.8°
Drops below altitude 10° 14:52:36 10° 127° (SE) 2,688 8.5 44.6°
Sets 14:55:31 0° 138° (SE) 3,640 9.1 43.9°
